This is the latest recevied weather packets stored in our database for station/object DM1HF-13. If no packets are shown the sender has not sent any weather packets the latest 1 day(s).
| Time | Temp. | Humidity | Pressure | Rain* | Wind** | Luminosity | Snow |
|---|---|---|---|---|---|---|---|
| 1777982416 | 18.89° C | 70% | 1010.5 hPa | 0 mm | 1.34 m/s, 299° | 280 W/m² | - |
| 1777982116 | 18.89° C | 70% | 1010.6 hPa | 0 mm | 0 m/s | 320 W/m² | - |
| 1777981816 | 18.33° C | 73% | 1010.6 hPa | 0 mm | 0.89 m/s, 312° | 223 W/m² | - |
| 1777981516 | 18.33° C | 76% | 1010.6 hPa | 0 mm | 0 m/s | 199 W/m² | - |
| 1777981216 | 18.33° C | 76% | 1010.6 hPa | 0 mm | 0.89 m/s, 341° | 209 W/m² | - |
| 1777980916 | 17.78° C | 76% | 1010.6 hPa | 0 mm | 0.89 m/s, 343° | 180 W/m² | - |
| 1777980616 | 17.78° C | 76% | 1010.6 hPa | 0 mm | 0.89 m/s, 334° | 152 W/m² | - |
| 1777980316 | 17.78° C | 77% | 1010.6 hPa | 0 mm | 0.89 m/s, 290° | 139 W/m² | - |
| 1777980016 | 17.22° C | 77% | 1010.7 hPa | 0 mm | 0.45 m/s, 285° | 148 W/m² | - |
| 1777979716 | 17.22° C | 78% | 1010.7 hPa | 0 mm | 1.34 m/s, 323° | 146 W/m² | - |
| 1777979416 | 17.22° C | 77% | 1010.7 hPa | 0 mm | 0.89 m/s, 331° | 140 W/m² | - |
| 1777979116 | 17.22° C | 78% | 1010.8 hPa | 0 mm | 1.79 m/s, 306° | 156 W/m² | - |
| 1777978816 | 17.22° C | 78% | 1010.9 hPa | 0 mm | 1.79 m/s, 281° | 140 W/m² | - |
| 1777978516 | 17.22° C | 78% | 1011 hPa | 0 mm | 0.89 m/s, 268° | 126 W/m² | - |
| 1777978217 | 17.22° C | 80% | 1011 hPa | 0 mm | 0.45 m/s, 297° | 122 W/m² | - |
| 1777977916 | 17.22° C | 80% | 1010.9 hPa | 0 mm | 1.34 m/s, 318° | 101 W/m² | - |
| 1777977616 | 17.22° C | 79% | 1011 hPa | 0 mm | 0.45 m/s, 316° | 91 W/m² | - |
| 1777977316 | 17.22° C | 78% | 1011 hPa | 0 mm | 0.89 m/s, 308° | 88 W/m² | - |
| 1777977016 | 17.22° C | 77% | 1011.1 hPa | 0 mm | 0.89 m/s, 331° | 91 W/m² | - |
| 1777976716 | 17.22° C | 78% | 1011.2 hPa | 0 mm | 0.89 m/s, 324° | 102 W/m² | - |
| 1777976416 | 17.22° C | 81% | 1011.2 hPa | 0 mm | 0.89 m/s, 337° | 103 W/m² | - |
| 1777976116 | 17.22° C | 80% | 1011.4 hPa | 0 mm | 0.89 m/s, 285° | 103 W/m² | - |
| 1777975816 | 17.22° C | 81% | 1011.3 hPa | 0 mm | 0.45 m/s, 320° | 106 W/m² | - |
| 1777975516 | 17.22° C | 81% | 1011.4 hPa | 0 mm | 0.45 m/s, 281° | 93 W/m² | - |
| 1777975216 | 16.67° C | 82% | 1011.3 hPa | 0 mm | 0 m/s | 83 W/m² | - |
* Rain latest hour (hover to see other rain measurements)
** Current wind speed in m/s (hover to see current wind gust speed)